Year,Month,Day,Hour,Minute,Value (Times are PST for temperature in C)
2018,04,09,00,00,9.30
2018,04,09,00,01,9.30
2018,04,09,00,02,9.30
2018,04,09,00,03,9.30
2018,04,09,00,04,9.30
2018,04,09,00,05,9.30
2018,04,09,00,06,9.20
2018,04,09,00,07,9.20
2018,04,09,00,08,9.20
2018,04,09,00,09,9.20
2018,04,09,00,10,9.20
2018,04,09,00,11,9.20
2018,04,09,00,12,9.20
2018,04,09,00,13,9.20
2018,04,09,00,14,9.20
2018,04,09,00,15,9.20
2018,04,09,00,16,9.20
2018,04,09,00,17,9.20
2018,04,09,00,18,9.20
2018,04,09,00,19,9.20
2018,04,09,00,20,9.20
2018,04,09,00,21,9.20
2018,04,09,00,22,9.20
2018,04,09,00,23,9.20
2018,04,09,00,24,9.20
2018,04,09,00,25,9.20
2018,04,09,00,26,9.20
2018,04,09,00,27,9.20
2018,04,09,00,28,9.20
2018,04,09,00,29,9.20
2018,04,09,00,30,9.20
2018,04,09,00,31,9.20
2018,04,09,00,32,9.20
2018,04,09,00,33,9.20
2018,04,09,00,34,9.20
2018,04,09,00,35,9.10
2018,04,09,00,36,9.10
2018,04,09,00,37,9.10
2018,04,09,00,38,9.10
2018,04,09,00,39,9.10
2018,04,09,00,40,9.10
2018,04,09,00,41,9.10
2018,04,09,00,42,9.10
2018,04,09,00,43,9.10
2018,04,09,00,44,9.10
2018,04,09,00,45,9.10
2018,04,09,00,46,9.10
2018,04,09,00,47,9.10
2018,04,09,00,48,9.00
2018,04,09,00,49,9.10
2018,04,09,00,50,9.10
2018,04,09,00,51,9.10
2018,04,09,00,52,9.10
2018,04,09,00,53,9.10
2018,04,09,00,54,9.00
2018,04,09,00,55,9.00
2018,04,09,00,56,9.10
2018,04,09,00,57,9.10
2018,04,09,00,58,9.10
2018,04,09,00,59,9.10
2018,04,09,01,00,9.10
2018,04,09,01,01,9.10
2018,04,09,01,02,9.10
2018,04,09,01,03,9.10
2018,04,09,01,04,9.10
2018,04,09,01,05,9.10
2018,04,09,01,06,9.10
2018,04,09,01,07,9.10
2018,04,09,01,08,9.10
2018,04,09,01,09,9.10
2018,04,09,01,10,9.10
2018,04,09,01,11,9.10
2018,04,09,01,12,9.10
2018,04,09,01,13,9.10
2018,04,09,01,14,9.10
2018,04,09,01,15,9.10
2018,04,09,01,16,9.10
2018,04,09,01,17,9.10
2018,04,09,01,18,9.10
2018,04,09,01,19,9.10
2018,04,09,01,20,9.10
2018,04,09,01,21,9.10
2018,04,09,01,22,9.10
2018,04,09,01,23,9.10
2018,04,09,01,24,9.10
2018,04,09,01,25,9.10
2018,04,09,01,26,9.10
2018,04,09,01,27,9.10
2018,04,09,01,28,9.10
2018,04,09,01,29,9.10
2018,04,09,01,30,9.10
2018,04,09,01,31,9.10
2018,04,09,01,32,9.10
2018,04,09,01,33,9.10
2018,04,09,01,34,9.10
2018,04,09,01,35,9.10
2018,04,09,01,36,9.10
2018,04,09,01,37,9.10
2018,04,09,01,38,9.10
2018,04,09,01,39,9.10
2018,04,09,01,40,9.00
2018,04,09,01,41,9.00
2018,04,09,01,42,9.00
2018,04,09,01,43,9.00
2018,04,09,01,44,9.00
2018,04,09,01,45,9.00
2018,04,09,01,46,9.00
2018,04,09,01,47,9.00
2018,04,09,01,48,9.00
2018,04,09,01,49,9.00
2018,04,09,01,50,9.00
2018,04,09,01,51,9.00
2018,04,09,01,52,9.00
2018,04,09,01,53,9.00
2018,04,09,01,54,9.00
2018,04,09,01,55,9.00
2018,04,09,01,56,9.00
2018,04,09,01,57,9.00
2018,04,09,01,58,9.00
2018,04,09,01,59,9.00
2018,04,09,02,00,9.00
2018,04,09,02,01,9.00
2018,04,09,02,02,9.00
2018,04,09,02,03,9.00
2018,04,09,02,04,9.00
2018,04,09,02,05,9.00
2018,04,09,02,06,9.00
2018,04,09,02,07,9.00
2018,04,09,02,08,9.00
2018,04,09,02,09,9.00
2018,04,09,02,10,9.00
2018,04,09,02,11,9.00
2018,04,09,02,12,9.00
2018,04,09,02,13,9.00
2018,04,09,02,14,9.00
2018,04,09,02,15,9.00
2018,04,09,02,16,9.00
2018,04,09,02,17,9.00
2018,04,09,02,18,8.90
2018,04,09,02,19,8.90
2018,04,09,02,20,8.90
2018,04,09,02,21,8.90
2018,04,09,02,22,8.90
2018,04,09,02,23,8.90
2018,04,09,02,24,8.90
2018,04,09,02,25,8.90
2018,04,09,02,26,8.90
2018,04,09,02,27,8.90
2018,04,09,02,28,8.90
2018,04,09,02,29,8.90
2018,04,09,02,30,8.90
2018,04,09,02,31,8.90
2018,04,09,02,32,9.00
2018,04,09,02,33,9.00
2018,04,09,02,34,9.00
2018,04,09,02,35,9.00
2018,04,09,02,36,9.00
2018,04,09,02,37,9.00
2018,04,09,02,38,9.00
2018,04,09,02,39,9.00
2018,04,09,02,40,9.00
2018,04,09,02,41,9.00
2018,04,09,02,42,9.10
2018,04,09,02,43,9.10
2018,04,09,02,44,9.10
2018,04,09,02,45,9.10
2018,04,09,02,46,9.10
2018,04,09,02,47,9.10
2018,04,09,02,48,9.10
2018,04,09,02,49,9.10
2018,04,09,02,50,9.10
2018,04,09,02,51,9.10
2018,04,09,02,52,9.00
2018,04,09,02,53,9.00
2018,04,09,02,54,9.00
2018,04,09,02,55,9.00
2018,04,09,02,56,9.00
2018,04,09,02,57,9.00
2018,04,09,02,58,9.00
2018,04,09,02,59,9.00
2018,04,09,03,00,9.00
2018,04,09,03,01,9.00
2018,04,09,03,02,9.00
2018,04,09,03,03,9.00
2018,04,09,03,04,9.00
2018,04,09,03,05,9.00
2018,04,09,03,06,9.00
2018,04,09,03,07,9.00
2018,04,09,03,08,9.00
2018,04,09,03,09,9.00
2018,04,09,03,10,9.00
2018,04,09,03,11,9.00
2018,04,09,03,12,9.00
2018,04,09,03,13,9.00
2018,04,09,03,14,9.00
2018,04,09,03,15,9.00
2018,04,09,03,16,9.00
2018,04,09,03,17,9.00
2018,04,09,03,18,8.90
2018,04,09,03,19,9.00
2018,04,09,03,20,9.00
2018,04,09,03,21,9.00
2018,04,09,03,22,9.00
2018,04,09,03,23,8.90
2018,04,09,03,24,9.00
2018,04,09,03,25,9.00
2018,04,09,03,26,9.00
2018,04,09,03,27,9.00
2018,04,09,03,28,9.00
2018,04,09,03,29,9.00
2018,04,09,03,30,9.00
2018,04,09,03,31,9.00
2018,04,09,03,32,9.00
2018,04,09,03,33,9.00
2018,04,09,03,34,9.00
2018,04,09,03,35,9.00
2018,04,09,03,36,9.00
2018,04,09,03,37,9.00
2018,04,09,03,38,9.00
2018,04,09,03,39,9.00
2018,04,09,03,40,9.00
2018,04,09,03,41,9.00
2018,04,09,03,42,9.00
2018,04,09,03,43,9.00
2018,04,09,03,44,9.00
2018,04,09,03,45,9.00
2018,04,09,03,46,9.00
2018,04,09,03,47,9.00
2018,04,09,03,48,9.00
2018,04,09,03,49,9.00
2018,04,09,03,50,9.00
2018,04,09,03,51,9.00
2018,04,09,03,52,9.10
2018,04,09,03,53,9.10
2018,04,09,03,54,9.10
2018,04,09,03,55,9.00
2018,04,09,03,56,9.00
2018,04,09,03,57,9.00
2018,04,09,03,58,9.00
2018,04,09,03,59,9.10
2018,04,09,04,00,9.00
2018,04,09,04,01,9.00
2018,04,09,04,02,9.00
2018,04,09,04,03,9.00
2018,04,09,04,04,9.00
2018,04,09,04,05,9.00
2018,04,09,04,06,8.90
2018,04,09,04,07,8.90
2018,04,09,04,08,8.90
2018,04,09,04,09,8.90
2018,04,09,04,10,8.90
2018,04,09,04,11,8.90
2018,04,09,04,12,8.90
2018,04,09,04,13,8.90
2018,04,09,04,14,8.90
2018,04,09,04,15,8.90
2018,04,09,04,16,8.90
2018,04,09,04,17,8.90
2018,04,09,04,18,8.90
2018,04,09,04,19,8.90
2018,04,09,04,20,8.90
2018,04,09,04,21,8.90
2018,04,09,04,22,8.90
2018,04,09,04,23,8.90
2018,04,09,04,24,8.90
2018,04,09,04,25,8.90
2018,04,09,04,26,8.90
2018,04,09,04,27,8.80
2018,04,09,04,28,8.80
2018,04,09,04,29,8.80
2018,04,09,04,30,8.80
2018,04,09,04,31,8.80
2018,04,09,04,32,8.80
2018,04,09,04,33,8.80
2018,04,09,04,34,8.80
2018,04,09,04,35,8.80
2018,04,09,04,36,8.80
2018,04,09,04,37,8.80
2018,04,09,04,38,8.80
2018,04,09,04,39,8.80
2018,04,09,04,40,8.80
2018,04,09,04,41,8.80
2018,04,09,04,42,8.80
2018,04,09,04,43,8.80
2018,04,09,04,44,8.80
2018,04,09,04,45,8.80
2018,04,09,04,46,8.80
2018,04,09,04,47,8.80
2018,04,09,04,48,8.70
2018,04,09,04,49,8.70
2018,04,09,04,50,8.70
2018,04,09,04,51,8.70
2018,04,09,04,52,8.70
2018,04,09,04,53,8.70
2018,04,09,04,54,8.70
2018,04,09,04,55,8.70
2018,04,09,04,56,8.70
2018,04,09,04,57,8.60
2018,04,09,04,58,8.60
2018,04,09,04,59,8.60
2018,04,09,05,00,8.60
2018,04,09,05,01,8.60
2018,04,09,05,02,8.60
2018,04,09,05,03,8.60
2018,04,09,05,04,8.60
2018,04,09,05,05,8.60
2018,04,09,05,06,8.60
2018,04,09,05,07,8.60
2018,04,09,05,08,8.50
2018,04,09,05,09,8.50
2018,04,09,05,10,8.50
2018,04,09,05,11,8.50
2018,04,09,05,12,8.50
2018,04,09,05,13,8.40
2018,04,09,05,14,8.40
2018,04,09,05,15,8.40
2018,04,09,05,16,8.40
2018,04,09,05,17,8.40
2018,04,09,05,18,8.40
2018,04,09,05,19,8.40
2018,04,09,05,20,8.40
2018,04,09,05,21,8.40
2018,04,09,05,22,8.40
2018,04,09,05,23,8.40
2018,04,09,05,24,8.40
2018,04,09,05,25,8.40
2018,04,09,05,26,8.40
2018,04,09,05,27,8.40
2018,04,09,05,28,8.40
2018,04,09,05,29,8.40
2018,04,09,05,30,8.40
2018,04,09,05,31,8.40
2018,04,09,05,32,8.40
2018,04,09,05,33,8.30
2018,04,09,05,34,8.30
2018,04,09,05,35,8.30
2018,04,09,05,36,8.30
2018,04,09,05,37,8.30
2018,04,09,05,38,8.30
2018,04,09,05,39,8.30
2018,04,09,05,40,8.30
2018,04,09,05,41,8.30
2018,04,09,05,42,8.30
2018,04,09,05,43,8.30
2018,04,09,05,44,8.30
2018,04,09,05,45,8.30
2018,04,09,05,46,8.30
2018,04,09,05,47,8.30
2018,04,09,05,48,8.30
2018,04,09,05,49,8.30
2018,04,09,05,50,8.30
2018,04,09,05,51,8.30
2018,04,09,05,52,8.30
2018,04,09,05,53,8.30
2018,04,09,05,54,8.30
2018,04,09,05,55,8.30
2018,04,09,05,56,8.30
2018,04,09,05,57,8.30
2018,04,09,05,58,8.30
2018,04,09,05,59,8.30
2018,04,09,06,00,8.30
2018,04,09,06,01,8.30
2018,04,09,06,02,8.30
2018,04,09,06,03,8.30
2018,04,09,06,04,8.30
2018,04,09,06,05,8.30
2018,04,09,06,06,8.30
2018,04,09,06,07,8.30
2018,04,09,06,08,8.30
2018,04,09,06,09,8.20
2018,04,09,06,10,8.20
2018,04,09,06,11,8.20
2018,04,09,06,12,8.20
2018,04,09,06,13,8.20
2018,04,09,06,14,8.10
2018,04,09,06,15,8.10
2018,04,09,06,16,8.10
2018,04,09,06,17,8.20
2018,04,09,06,18,8.20
2018,04,09,06,19,8.20
2018,04,09,06,20,8.20
2018,04,09,06,21,8.20
2018,04,09,06,22,8.20
2018,04,09,06,23,8.10
2018,04,09,06,24,8.10
2018,04,09,06,25,8.10
2018,04,09,06,26,8.10
2018,04,09,06,27,8.10
2018,04,09,06,28,8.10
2018,04,09,06,29,8.10
2018,04,09,06,30,8.10
2018,04,09,06,31,8.10
2018,04,09,06,32,8.10
2018,04,09,06,33,8.10
2018,04,09,06,34,8.10
2018,04,09,06,35,8.10
2018,04,09,06,36,8.10
2018,04,09,06,37,8.10
2018,04,09,06,38,8.10
2018,04,09,06,39,8.10
2018,04,09,06,40,8.10
2018,04,09,06,41,8.10
2018,04,09,06,42,8.10
2018,04,09,06,43,8.00
2018,04,09,06,44,8.00
2018,04,09,06,45,8.10
2018,04,09,06,46,8.00
2018,04,09,06,47,8.00
2018,04,09,06,48,8.00
2018,04,09,06,49,8.00
2018,04,09,06,50,8.00
2018,04,09,06,51,8.00
2018,04,09,06,52,8.00
2018,04,09,06,53,8.00
2018,04,09,06,54,8.00
2018,04,09,06,55,8.00
2018,04,09,06,56,8.00
2018,04,09,06,57,8.00
2018,04,09,06,58,8.00
2018,04,09,06,59,8.00
2018,04,09,07,00,8.00
2018,04,09,07,01,8.00
2018,04,09,07,02,8.00
2018,04,09,07,03,8.00
2018,04,09,07,04,8.00
2018,04,09,07,05,8.00
2018,04,09,07,06,8.00
2018,04,09,07,07,8.00
2018,04,09,07,08,8.00
2018,04,09,07,09,8.00
2018,04,09,07,10,8.00
2018,04,09,07,11,8.00
2018,04,09,07,12,8.00
2018,04,09,07,13,8.00
2018,04,09,07,14,8.00
2018,04,09,07,15,8.00
2018,04,09,07,16,8.00
2018,04,09,07,17,8.00
2018,04,09,07,18,8.00
2018,04,09,07,19,8.00
2018,04,09,07,20,8.00
2018,04,09,07,21,8.00
2018,04,09,07,22,8.10
2018,04,09,07,23,8.10
2018,04,09,07,24,8.10
2018,04,09,07,25,8.10
2018,04,09,07,26,8.10
2018,04,09,07,27,8.10
2018,04,09,07,28,8.10
2018,04,09,07,29,8.20
2018,04,09,07,30,8.20
2018,04,09,07,31,8.20
2018,04,09,07,32,8.30
2018,04,09,07,33,8.30
2018,04,09,07,34,8.40
2018,04,09,07,35,8.50
2018,04,09,07,36,8.50
2018,04,09,07,37,8.60
2018,04,09,07,38,8.60
2018,04,09,07,39,8.60
2018,04,09,07,40,8.70
2018,04,09,07,41,8.70
2018,04,09,07,42,8.70
2018,04,09,07,43,8.80
2018,04,09,07,44,8.80
2018,04,09,07,45,8.80
2018,04,09,07,46,8.80
2018,04,09,07,47,8.90
2018,04,09,07,48,8.90
2018,04,09,07,49,8.90
2018,04,09,07,50,8.90
2018,04,09,07,51,9.00
2018,04,09,07,52,9.00
2018,04,09,07,53,9.00
2018,04,09,07,54,9.10
2018,04,09,07,55,9.10
2018,04,09,07,56,9.20
2018,04,09,07,57,9.20
2018,04,09,07,58,9.20
2018,04,09,07,59,9.20
2018,04,09,08,00,9.20
2018,04,09,08,01,9.30
2018,04,09,08,02,9.30
2018,04,09,08,03,9.30
2018,04,09,08,04,9.30
2018,04,09,08,05,9.30
2018,04,09,08,06,9.30
2018,04,09,08,07,9.40
2018,04,09,08,08,9.40
2018,04,09,08,09,9.40
2018,04,09,08,10,9.40
2018,04,09,08,11,9.40
2018,04,09,08,12,9.40
2018,04,09,08,13,9.50
2018,04,09,08,14,9.50
2018,04,09,08,15,9.50
2018,04,09,08,16,9.50
2018,04,09,08,17,9.60
2018,04,09,08,18,9.60
2018,04,09,08,19,9.60
2018,04,09,08,20,9.60
2018,04,09,08,21,9.60
2018,04,09,08,22,9.60
2018,04,09,08,23,9.60
2018,04,09,08,24,9.60
2018,04,09,08,25,9.70
2018,04,09,08,26,9.70
2018,04,09,08,27,9.70
2018,04,09,08,28,9.70
2018,04,09,08,29,9.70
2018,04,09,08,30,9.80
2018,04,09,08,31,9.80
2018,04,09,08,32,9.80
2018,04,09,08,33,9.80
2018,04,09,08,34,9.90
2018,04,09,08,35,9.90
2018,04,09,08,36,9.90
2018,04,09,08,37,9.90
2018,04,09,08,38,10.00
2018,04,09,08,39,10.00
2018,04,09,08,40,10.10
2018,04,09,08,41,10.10
2018,04,09,08,42,10.10
2018,04,09,08,43,10.10
2018,04,09,08,44,10.10
2018,04,09,08,45,10.10
2018,04,09,08,46,10.10
2018,04,09,08,47,10.00
2018,04,09,08,48,10.00
2018,04,09,08,49,9.90
2018,04,09,08,50,9.90
2018,04,09,08,51,9.90
2018,04,09,08,52,10.00
2018,04,09,08,53,10.00
2018,04,09,08,54,10.00
2018,04,09,08,55,10.00
2018,04,09,08,56,10.00
2018,04,09,08,57,10.00
2018,04,09,08,58,10.00
2018,04,09,08,59,10.00
2018,04,09,09,00,10.00
2018,04,09,09,01,10.00
2018,04,09,09,02,10.00
2018,04,09,09,03,9.90
2018,04,09,09,04,9.90
2018,04,09,09,05,9.90
2018,04,09,09,06,9.90
2018,04,09,09,07,9.90
2018,04,09,09,08,9.90
2018,04,09,09,09,9.90
2018,04,09,09,10,9.90
2018,04,09,09,11,9.90
2018,04,09,09,12,9.80
2018,04,09,09,13,9.90
2018,04,09,09,14,10.00
2018,04,09,09,15,10.00
2018,04,09,09,16,10.00
2018,04,09,09,17,10.00
2018,04,09,09,18,10.10
2018,04,09,09,19,10.20
2018,04,09,09,20,10.20
2018,04,09,09,21,10.20
2018,04,09,09,22,10.20
2018,04,09,09,23,10.20
2018,04,09,09,24,10.10
2018,04,09,09,25,10.10
2018,04,09,09,26,10.10
2018,04,09,09,27,10.00
2018,04,09,09,28,10.00
2018,04,09,09,29,10.10
2018,04,09,09,30,10.10
2018,04,09,09,31,10.20
2018,04,09,09,32,10.20
2018,04,09,09,33,10.30
2018,04,09,09,34,10.30
2018,04,09,09,35,10.30
2018,04,09,09,36,10.20
2018,04,09,09,37,10.10
2018,04,09,09,38,10.10
2018,04,09,09,39,10.20
2018,04,09,09,40,10.20
2018,04,09,09,41,10.20
2018,04,09,09,42,10.10
2018,04,09,09,43,10.10
2018,04,09,09,44,10.10
2018,04,09,09,45,10.20
2018,04,09,09,46,10.20
2018,04,09,09,47,10.20
2018,04,09,09,48,10.10
2018,04,09,09,49,10.10
2018,04,09,09,50,10.10
2018,04,09,09,51,10.10
2018,04,09,09,52,10.00
2018,04,09,09,53,10.00
2018,04,09,09,54,10.00
2018,04,09,09,55,10.10
2018,04,09,09,56,10.20
2018,04,09,09,57,10.30
2018,04,09,09,58,10.30
2018,04,09,09,59,10.30
2018,04,09,10,00,10.30
2018,04,09,10,01,10.30
2018,04,09,10,02,10.30
2018,04,09,10,03,10.20
2018,04,09,10,04,10.20
2018,04,09,10,05,10.20
2018,04,09,10,06,10.30
2018,04,09,10,07,10.30
2018,04,09,10,08,10.30
2018,04,09,10,09,10.20
2018,04,09,10,10,10.20
2018,04,09,10,11,10.10
2018,04,09,10,12,10.10
2018,04,09,10,13,10.10
2018,04,09,10,14,10.10
2018,04,09,10,15,10.10
2018,04,09,10,16,10.00
2018,04,09,10,17,10.00
2018,04,09,10,18,10.10
2018,04,09,10,19,10.10
2018,04,09,10,20,10.10
2018,04,09,10,21,10.10
2018,04,09,10,22,10.00
2018,04,09,10,23,10.00
2018,04,09,10,24,10.10
2018,04,09,10,25,10.10
2018,04,09,10,26,10.20
2018,04,09,10,27,10.20
2018,04,09,10,28,10.20
2018,04,09,10,29,10.20
2018,04,09,10,30,10.20
2018,04,09,10,31,10.20
2018,04,09,10,32,10.10
2018,04,09,10,33,10.10
2018,04,09,10,34,10.00
2018,04,09,10,35,9.90
2018,04,09,10,36,9.90
2018,04,09,10,37,9.90
2018,04,09,10,38,9.80
2018,04,09,10,39,9.80
2018,04,09,10,40,9.90
2018,04,09,10,41,9.90
2018,04,09,10,42,9.90
2018,04,09,10,43,9.90
2018,04,09,10,44,10.00
2018,04,09,10,45,10.10
2018,04,09,10,46,10.20
2018,04,09,10,47,10.30
2018,04,09,10,48,10.30
2018,04,09,10,49,10.30
2018,04,09,10,50,10.30
2018,04,09,10,51,10.30
2018,04,09,10,52,10.30
2018,04,09,10,53,10.30
2018,04,09,10,54,10.30
2018,04,09,10,55,10.40
2018,04,09,10,56,10.50
2018,04,09,10,57,10.50
2018,04,09,10,58,10.60
2018,04,09,10,59,10.60
2018,04,09,11,00,10.60
2018,04,09,11,01,10.70
2018,04,09,11,02,10.60
2018,04,09,11,03,10.60
2018,04,09,11,04,10.50
2018,04,09,11,05,10.40
2018,04,09,11,06,10.40
2018,04,09,11,07,10.30
2018,04,09,11,08,10.30
2018,04,09,11,09,10.30
2018,04,09,11,10,10.20
2018,04,09,11,11,10.20
2018,04,09,11,12,10.20
2018,04,09,11,13,10.20
2018,04,09,11,14,10.20
2018,04,09,11,15,10.20
2018,04,09,11,16,10.20
2018,04,09,11,17,10.20
2018,04,09,11,18,10.20
2018,04,09,11,19,10.20
2018,04,09,11,20,10.20
2018,04,09,11,21,10.30
2018,04,09,11,22,10.40
2018,04,09,11,23,10.40
2018,04,09,11,24,10.50
2018,04,09,11,25,10.60
2018,04,09,11,26,10.60
2018,04,09,11,27,10.50
2018,04,09,11,28,10.50
2018,04,09,11,29,10.50
2018,04,09,11,30,10.60
2018,04,09,11,31,10.70
2018,04,09,11,32,10.70
2018,04,09,11,33,10.80
2018,04,09,11,34,10.80
2018,04,09,11,35,10.80
2018,04,09,11,36,10.70
2018,04,09,11,37,10.60
2018,04,09,11,38,10.50
2018,04,09,11,39,10.50
2018,04,09,11,40,10.50
2018,04,09,11,41,10.50
2018,04,09,11,42,10.50
2018,04,09,11,43,10.40
2018,04,09,11,44,10.30
2018,04,09,11,45,10.20
2018,04,09,11,46,10.20
2018,04,09,11,47,10.10
2018,04,09,11,48,10.10
2018,04,09,11,49,10.00
2018,04,09,11,50,10.00
2018,04,09,11,51,10.10
2018,04,09,11,52,10.10
2018,04,09,11,53,10.10
2018,04,09,11,54,10.10
2018,04,09,11,55,10.10
2018,04,09,11,56,10.20
2018,04,09,11,57,10.20
2018,04,09,11,58,10.30
2018,04,09,11,59,10.40
2018,04,09,12,00,10.40
2018,04,09,12,01,10.40
2018,04,09,12,02,10.30
2018,04,09,12,03,10.30
2018,04,09,12,04,10.30
2018,04,09,12,05,10.40
2018,04,09,12,06,10.30
2018,04,09,12,07,10.40
2018,04,09,12,08,10.50
2018,04,09,12,09,10.60
2018,04,09,12,10,10.60
2018,04,09,12,11,10.50
2018,04,09,12,12,10.40
2018,04,09,12,13,10.30
2018,04,09,12,14,10.30
2018,04,09,12,15,10.30
2018,04,09,12,16,10.20
2018,04,09,12,17,10.20
2018,04,09,12,18,10.20
2018,04,09,12,19,10.20
2018,04,09,12,20,10.10
2018,04,09,12,21,10.10
2018,04,09,12,22,10.20
2018,04,09,12,23,10.30
2018,04,09,12,24,10.30
2018,04,09,12,25,10.30
2018,04,09,12,26,10.30
2018,04,09,12,27,10.30
2018,04,09,12,28,10.30
2018,04,09,12,29,10.30
2018,04,09,12,30,10.30
2018,04,09,12,31,10.20
2018,04,09,12,32,10.10
2018,04,09,12,33,10.20
2018,04,09,12,34,10.20
2018,04,09,12,35,10.20
2018,04,09,12,36,10.30
2018,04,09,12,37,10.30
2018,04,09,12,38,10.40
2018,04,09,12,39,10.40
2018,04,09,12,40,10.30
2018,04,09,12,41,10.30
2018,04,09,12,42,10.40
2018,04,09,12,43,10.40
2018,04,09,12,44,10.40
2018,04,09,12,45,10.40
2018,04,09,12,46,10.40
2018,04,09,12,47,10.30
2018,04,09,12,48,10.40
2018,04,09,12,49,10.50
2018,04,09,12,50,10.30
2018,04,09,12,51,10.30
2018,04,09,12,52,10.30
2018,04,09,12,53,10.30
2018,04,09,12,54,10.40
2018,04,09,12,55,10.30
2018,04,09,12,56,10.30
2018,04,09,12,57,10.30
2018,04,09,12,58,10.30
2018,04,09,12,59,10.30
2018,04,09,13,00,10.40
2018,04,09,13,01,10.50
2018,04,09,13,02,10.40
2018,04,09,13,03,10.30
2018,04,09,13,04,10.10
2018,04,09,13,05,9.90
2018,04,09,13,06,9.80
2018,04,09,13,07,9.80
2018,04,09,13,08,9.90
2018,04,09,13,09,10.10
2018,04,09,13,10,10.20
2018,04,09,13,11,10.30
2018,04,09,13,12,10.30
2018,04,09,13,13,10.20
2018,04,09,13,14,10.10
2018,04,09,13,15,9.90
2018,04,09,13,16,9.80
2018,04,09,13,17,9.90
2018,04,09,13,18,9.90
2018,04,09,13,19,9.90
2018,04,09,13,20,9.80
2018,04,09,13,21,9.90
2018,04,09,13,22,10.00
2018,04,09,13,23,10.10
2018,04,09,13,24,10.10
2018,04,09,13,25,10.20
2018,04,09,13,26,10.20
2018,04,09,13,27,10.20
2018,04,09,13,28,10.20
2018,04,09,13,29,10.30
2018,04,09,13,30,10.40
2018,04,09,13,31,10.50
2018,04,09,13,32,10.60
2018,04,09,13,33,10.70
2018,04,09,13,34,10.70
2018,04,09,13,35,10.60
2018,04,09,13,36,10.60
2018,04,09,13,37,10.70
2018,04,09,13,38,10.60
2018,04,09,13,39,10.60
2018,04,09,13,40,10.60
2018,04,09,13,41,10.50
2018,04,09,13,42,10.50
2018,04,09,13,43,10.50
2018,04,09,13,44,10.50
2018,04,09,13,45,10.50
2018,04,09,13,46,10.50
2018,04,09,13,47,10.60
2018,04,09,13,48,10.70
2018,04,09,13,49,10.70
2018,04,09,13,50,10.70
2018,04,09,13,51,10.60
2018,04,09,13,52,10.50
2018,04,09,13,53,10.60
2018,04,09,13,54,10.50
2018,04,09,13,55,10.50
2018,04,09,13,56,10.50
2018,04,09,13,57,10.40
2018,04,09,13,58,10.50
2018,04,09,13,59,10.60
2018,04,09,14,00,10.80
2018,04,09,14,01,10.90
2018,04,09,14,02,10.80
2018,04,09,14,03,10.80
2018,04,09,14,04,10.80
2018,04,09,14,05,10.80
2018,04,09,14,06,10.90
2018,04,09,14,07,10.90
2018,04,09,14,08,10.90
2018,04,09,14,09,10.90
2018,04,09,14,10,10.80
2018,04,09,14,11,10.80
2018,04,09,14,12,10.80
2018,04,09,14,13,10.80
2018,04,09,14,14,10.80
2018,04,09,14,15,10.80
2018,04,09,14,16,10.80
2018,04,09,14,17,10.80
2018,04,09,14,18,10.80
2018,04,09,14,19,10.90
2018,04,09,14,20,11.00
2018,04,09,14,21,11.10
2018,04,09,14,22,11.20
2018,04,09,14,23,11.20
2018,04,09,14,24,11.30
2018,04,09,14,25,11.20
2018,04,09,14,26,11.20
2018,04,09,14,27,11.20
2018,04,09,14,28,11.10
2018,04,09,14,29,11.00
2018,04,09,14,30,10.90
2018,04,09,14,31,10.80
2018,04,09,14,32,10.90
2018,04,09,14,33,10.90
2018,04,09,14,34,11.00
2018,04,09,14,35,11.10
2018,04,09,14,36,11.10
2018,04,09,14,37,11.10
2018,04,09,14,38,11.10
2018,04,09,14,39,11.10
2018,04,09,14,40,10.90
2018,04,09,14,41,10.80
2018,04,09,14,42,10.80
2018,04,09,14,43,10.70
2018,04,09,14,44,10.70
2018,04,09,14,45,10.70
2018,04,09,14,46,10.70
2018,04,09,14,47,10.60
2018,04,09,14,48,10.60
2018,04,09,14,49,10.60
2018,04,09,14,50,10.60
2018,04,09,14,51,10.60
2018,04,09,14,52,10.60
2018,04,09,14,53,10.60
2018,04,09,14,54,10.60
2018,04,09,14,55,10.70
2018,04,09,14,56,10.70
2018,04,09,14,57,10.70
2018,04,09,14,58,10.80
2018,04,09,14,59,10.80
2018,04,09,15,00,10.90
2018,04,09,15,01,10.90
2018,04,09,15,02,11.00
2018,04,09,15,03,11.10
2018,04,09,15,04,11.20
2018,04,09,15,05,11.20
2018,04,09,15,06,11.20
2018,04,09,15,07,11.30
2018,04,09,15,08,11.30
2018,04,09,15,09,11.30
2018,04,09,15,10,11.20
2018,04,09,15,11,11.20
2018,04,09,15,12,11.20
2018,04,09,15,13,11.20
2018,04,09,15,14,11.20
2018,04,09,15,15,11.20
2018,04,09,15,16,11.20
2018,04,09,15,17,11.10
2018,04,09,15,18,11.00
2018,04,09,15,19,11.00
2018,04,09,15,20,11.00
2018,04,09,15,21,11.10
2018,04,09,15,22,11.20
2018,04,09,15,23,11.20
2018,04,09,15,24,11.30
2018,04,09,15,25,11.30
2018,04,09,15,26,11.40
2018,04,09,15,27,11.50
2018,04,09,15,28,11.50
2018,04,09,15,29,11.50
2018,04,09,15,30,11.50
2018,04,09,15,31,11.60
2018,04,09,15,32,11.70
2018,04,09,15,33,11.70
2018,04,09,15,34,11.70
2018,04,09,15,35,11.70
2018,04,09,15,36,11.70
2018,04,09,15,37,11.70
2018,04,09,15,38,11.70
2018,04,09,15,39,11.70
2018,04,09,15,40,11.70
2018,04,09,15,41,11.70
2018,04,09,15,42,11.70
2018,04,09,15,43,11.70
2018,04,09,15,44,11.80
2018,04,09,15,45,11.80
2018,04,09,15,46,11.90
2018,04,09,15,47,12.00
2018,04,09,15,48,12.10
2018,04,09,15,49,12.10
2018,04,09,15,50,12.10
2018,04,09,15,51,12.10
2018,04,09,15,52,12.20
2018,04,09,15,53,12.20
2018,04,09,15,54,12.20
2018,04,09,15,55,12.10
2018,04,09,15,56,12.10
2018,04,09,15,57,12.10
2018,04,09,15,58,12.10
2018,04,09,15,59,12.10
2018,04,09,16,00,12.20
2018,04,09,16,01,12.20
2018,04,09,16,02,12.30
2018,04,09,16,03,12.30
2018,04,09,16,04,12.40
2018,04,09,16,05,12.40
2018,04,09,16,06,12.50
2018,04,09,16,07,12.60
2018,04,09,16,08,12.60
2018,04,09,16,09,12.60
2018,04,09,16,10,12.60
2018,04,09,16,11,12.60
2018,04,09,16,12,12.60
2018,04,09,16,13,12.50
2018,04,09,16,14,12.50
2018,04,09,16,15,12.50
2018,04,09,16,16,12.50
2018,04,09,16,17,12.60
2018,04,09,16,18,12.60
2018,04,09,16,19,12.60
2018,04,09,16,20,12.70
2018,04,09,16,21,12.70
2018,04,09,16,22,12.70
2018,04,09,16,23,12.70
2018,04,09,16,24,12.70
2018,04,09,16,25,12.70
2018,04,09,16,26,12.70
2018,04,09,16,27,12.70
2018,04,09,16,28,12.70
2018,04,09,16,29,12.70
2018,04,09,16,30,12.60
2018,04,09,16,31,12.60
2018,04,09,16,32,12.60
2018,04,09,16,33,12.60
2018,04,09,16,34,12.60
2018,04,09,16,35,12.60
2018,04,09,16,36,12.70
2018,04,09,16,37,12.70
2018,04,09,16,38,12.80
2018,04,09,16,39,12.80
2018,04,09,16,40,12.70
2018,04,09,16,41,12.60
2018,04,09,16,42,12.60
2018,04,09,16,43,12.60
2018,04,09,16,44,12.70
2018,04,09,16,45,12.70
2018,04,09,16,46,12.60
2018,04,09,16,47,12.60
2018,04,09,16,48,12.60
2018,04,09,16,49,12.60
2018,04,09,16,50,12.60
2018,04,09,16,51,12.60
2018,04,09,16,52,12.60
2018,04,09,16,53,12.60
2018,04,09,16,54,12.60
2018,04,09,16,55,12.70
2018,04,09,16,56,12.70
2018,04,09,16,57,12.70
2018,04,09,16,58,12.70
2018,04,09,16,59,12.70
2018,04,09,17,00,12.70
2018,04,09,17,01,12.70
2018,04,09,17,02,12.80
2018,04,09,17,03,12.80
2018,04,09,17,04,12.80
2018,04,09,17,05,12.80
2018,04,09,17,06,12.80
2018,04,09,17,07,12.70
2018,04,09,17,08,12.70
2018,04,09,17,09,12.60
2018,04,09,17,10,12.60
2018,04,09,17,11,12.60
2018,04,09,17,12,12.60
2018,04,09,17,13,12.60
2018,04,09,17,14,12.60
2018,04,09,17,15,12.60
2018,04,09,17,16,12.60
2018,04,09,17,17,12.70
2018,04,09,17,18,12.70
2018,04,09,17,19,12.60
2018,04,09,17,20,12.60
2018,04,09,17,21,12.60
2018,04,09,17,22,12.60
2018,04,09,17,23,12.60
2018,04,09,17,24,12.60
2018,04,09,17,25,12.60
2018,04,09,17,26,12.60
2018,04,09,17,27,12.70
2018,04,09,17,28,12.70
2018,04,09,17,29,12.70
2018,04,09,17,30,12.70
2018,04,09,17,31,12.80
2018,04,09,17,32,12.80
2018,04,09,17,33,12.80
2018,04,09,17,34,12.80
2018,04,09,17,35,12.80
2018,04,09,17,36,12.80
2018,04,09,17,37,12.80
2018,04,09,17,38,12.90
2018,04,09,17,39,12.90
2018,04,09,17,40,12.90
2018,04,09,17,41,13.00
2018,04,09,17,42,13.00
2018,04,09,17,43,13.00